User: anonymous   Login
Location: Bluff Heights
(33.7692°N, 118.1592°W)
Time: 17:42:36
(UTC+00:00)
Language:

A-11 Canister half - Orbit

View from above orbital plane
View from above orbital plane
View from above satellite
View from above satellite

Ground track
Ground track

The orbit data is extracted from the following two-line orbital elements,

1 00051U 60009C   21207.29558466 -.00000067  00000-0  16298-3 0  9991
2 00051  47.2110 178.0338 0109147 284.0870  74.7808 12.18277475713328
Epoch (UTC): 26 July 2021 07:05:38
Eccentricity: 0.0109147
inclination: 47.2110°
perigee height: 1513 km
apogee height: 1687 km
right ascension of ascending node: 178.0338°
argument of perigee: 284.0870°
revolutions per day: 12.18277475
mean anomaly at epoch: 74.7808°
orbit number at epoch: 71332

The dashed part of the orbit path shows where the satellite is in the earth's shadow,  

DLR